Location: Unspecified
(54.1780°N, 0.0000°E)
Time: 12:00:36
(UTC+00:00)

Envisat - Visible Passes

Search period start: 15 October 2019 00:00
Search period end: 25 October 2019 00:00
Orbit: 764 x 766 km, 98.1° (Epoch: 15 October)

Date Brightness Start Highest point End Pass type
(mag) Time Alt. Az. Time Alt. Az. Time Alt. Az.
15 Oct 5.2 18:59:49 10° SSW 19:04:07 27° W 19:08:27 10° NW visible
16 Oct 6.5 05:23:42 10° ENE 05:25:39 12° E 05:27:37 10° ESE visible
16 Oct 4.0 18:22:08 10° S 18:27:04 51° W 18:32:03 10° NNW visible
17 Oct 3.0 17:45:07 10° SSE 17:50:13 86° ENE 17:55:20 10° NNW visible
17 Oct 5.8 19:26:33 10° SW 19:29:57 18° W 19:33:21 10° NW visible
18 Oct 6.0 05:47:57 10° NE 05:51:35 19° E 05:55:10 10° SE visible
18 Oct 4.8 18:48:12 10° SSW 18:52:45 33° W 18:57:20 10° NNW visible
19 Oct 3.6 18:10:44 10° S 18:15:45 61° WSW 18:20:50 10° NNW visible
19 Oct 6.3 19:54:30 10° W 19:55:52 11° W 19:57:14 10° WNW visible
20 Oct 3.0 17:33:54 10° SSE 17:38:57 73° ENE 17:44:03 10° NNW visible
20 Oct 5.6 19:14:42 10° SW 19:18:32 21° W 19:22:23 10° NW visible
21 Oct 6.1 05:37:03 10° NE 05:40:09 16° E 05:43:13 10° ESE visible
21 Oct 4.5 18:36:39 10° SSW 18:41:24 39° W 18:46:11 10° NNW visible
22 Oct 3.3 17:59:24 10° S 18:04:28 74° WSW 18:09:35 10° NNW visible
22 Oct 6.1 19:41:55 10° WSW 19:44:25 14° W 19:46:55 10° NW visible
23 Oct 5.7 06:01:50 10° NE 06:05:59 25° E 06:10:07 10° SE visible
23 Oct 3.0 17:22:43 10° SSE 17:27:43 61° ENE 17:32:44 10° N visible
23 Oct 5.3 19:02:57 10° SSW 19:07:08 25° W 19:11:21 10° NW visible
24 Oct 6.3 05:26:21 10° NE 05:28:42 13° E 05:31:03 10° ESE visible
24 Oct 4.1 18:25:10 10° S 18:30:03 47° W 18:35:00 10° NNW visible
